Date String (YYYY-MM-DD hh:mm:ss) UTC,Instrument flags,absolute air pressure of the measurement (hPa),sample flow rate (lpm),inlet stack bypass flow (lpm),air temperature of the measurement (°C),ambient temperature measured by the external sensor (°C),aerosol sample conditioner tube jacket temperature (°C),OPC LED temperature (°C),internal box temperature (°C),relative humidity of the measurement (%),span deviation,mass concentration of particles derived from Lorenz-Mie calculation of OPC scattering (μg/m³),mass concentration of particles derived from Lorenz-Mie calculation of OPC scattering (μg/m³),mass concentration of particles derived from Lorenz-Mie calculation of OPC scattering (μg/m³)
DateTimeUTC,F1_M11,P_M11,Q1_M11,Q2_M11,T1_M11,T2_M11,T3_M11,T4_M11,T5_M11,U1_M11,ZSPAN_M11,X0_M11,X2_M11,X1_M11
2024-04-15 10:00:00,SystemResetWarning,0819.0,5.00,000.00,026.1,025.3,000.0,034.6,027.9,006.4,0000.0,0008.57,0002.28,0001.40
2024-04-15 10:01:00,SystemResetWarning,0819.1,5.00,000.00,026.1,025.3,000.0,034.6,027.9,006.4,0000.0,0008.20,0002.30,0001.40
2024-04-15 10:02:00,SystemResetWarning,0819.0,5.01,000.00,026.1,025.3,000.0,034.6,027.9,006.4,0000.0,0008.37,0002.31,0001.41
2024-04-15 10:03:00,SystemResetWarning,0819.1,5.01,000.00,026.1,025.3,000.0,034.6,027.9,006.3,0000.0,0008.74,0002.35,0001.41
2024-04-15 10:04:00,SystemResetWarning,0819.1,5.01,000.00,026.1,025.3,000.0,034.6,027.9,006.3,0000.0,0008.88,0002.37,0001.41
2024-04-15 10:05:00,SystemResetWarning,0819.1,5.00,000.00,026.1,025.3,000.0,034.6,027.9,006.2,0000.0,0008.95,0002.41,0001.42
2024-04-15 10:06:00,SystemResetWarning,0819.1,5.00,000.00,026.1,025.3,000.0,034.6,027.9,006.2,0000.0,0008.95,0002.41,0001.44
2024-04-15 10:07:00,SystemResetWarning,0819.0,5.00,000.00,026.1,025.3,000.0,034.6,027.9,006.2,0000.0,0009.17,0002.43,0001.44
2024-04-15 10:08:00,SystemResetWarning,0819.0,5.00,000.00,026.1,025.3,000.0,034.6,027.8,006.1,0000.0,0009.40,0002.44,0001.44
2024-04-15 10:09:00,SystemResetWarning,0819.1,5.00,000.00,026.1,025.2,000.0,034.6,027.9,006.1,0000.0,0008.34,0002.36,0001.44
2024-04-15 10:10:00,SystemResetWarning,0819.1,5.00,000.00,026.1,025.2,000.0,034.6,027.9,006.1,0000.0,0007.58,0002.30,0001.44
2024-04-15 10:11:00,SystemResetWarning,0819.0,5.00,000.00,026.0,025.2,000.0,034.6,027.8,006.2,0000.0,0007.99,0002.29,0001.44
2024-04-15 10:12:00,SystemResetWarning,0819.1,5.00,000.00,026.0,025.2,000.0,034.5,027.8,006.2,0000.0,0008.17,0002.31,0001.46
2024-04-15 10:13:00,SystemResetWarning,0819.0,5.01,000.00,026.0,025.2,000.0,034.5,027.8,006.2,0000.0,0007.55,0002.31,0001.45
2024-04-15 10:14:00,SystemResetWarning,0819.1,5.01,000.00,026.0,025.2,000.0,034.5,027.8,006.2,0000.0,0006.86,0002.25,0001.44
2024-04-15 10:15:00,SystemResetWarning,0819.2,5.00,000.00,026.0,025.2,000.0,034.5,027.8,007.3,0000.0,0006.74,0002.25,0001.44
2024-04-15 10:16:00,SystemResetWarning,0819.3,5.00,000.00,026.0,025.2,000.0,034.5,027.9,007.3,0000.0,0006.66,0002.22,0001.44
2024-04-15 10:17:00,SystemResetWarning,0819.3,4.99,000.00,026.0,025.2,000.0,034.5,027.8,006.5,0000.0,0006.50,0002.16,0001.42
2024-04-15 10:18:00,SystemResetWarning,0819.3,5.00,000.00,026.0,025.2,000.0,034.5,027.8,006.4,0000.0,0006.11,0002.10,0001.42
2024-04-15 10:19:00,SystemResetWarning,0819.4,5.00,000.00,026.0,025.2,000.0,034.5,027.8,008.2,0000.0,0005.24,0002.13,0001.42
2024-04-15 10:20:00,SystemResetWarning,0819.4,5.00,000.00,026.0,025.2,000.0,034.5,027.8,010.3,0000.0,0005.54,0002.23,0001.45
2024-04-15 10:21:00,SystemResetWarning,0819.5,5.00,000.00,026.0,025.2,000.0,034.5,027.8,010.4,0000.0,0005.71,0002.35,0001.52
2024-04-15 10:22:00,SystemResetWarning,0819.6,5.00,000.00,026.0,025.1,000.0,034.5,027.8,010.0,0000.0,0005.37,0002.46,0001.58
2024-04-15 10:23:00,SystemResetWarning,0819.4,5.00,000.00,026.0,025.1,000.0,034.5,027.8,009.7,0000.0,0005.09,0002.55,0001.64
2024-04-15 10:24:00,SystemResetWarning,0819.4,5.00,000.00,026.0,025.1,000.0,034.5,027.8,009.3,0000.0,0005.94,0002.65,0001.69
2024-04-15 10:25:00,SystemResetWarning,0819.4,5.00,000.00,026.0,025.1,000.0,034.5,027.8,008.7,0000.0,0007.47,0002.75,0001.75
2024-04-15 10:26:00,SystemResetWarning,0819.4,5.00,000.00,026.0,025.1,000.0,034.5,027.8,007.9,0000.0,0008.14,0002.80,0001.79
2024-04-15 10:27:00,SystemResetWarning,0819.4,5.00,000.00,026.0,025.2,000.0,034.5,027.9,007.5,0000.0,0008.38,0002.88,0001.81
2024-04-15 10:28:00,SystemResetWarning,0819.4,5.00,000.00,026.0,025.2,000.0,034.5,027.9,007.4,0000.0,0008.50,0003.00,0001.84
2024-04-15 10:29:00,SystemResetWarning,0819.5,5.00,000.00,026.0,025.2,000.0,034.5,027.9,007.8,0000.0,0009.04,0003.09,0001.88
2024-04-15 10:30:00,SystemResetWarning,0819.4,5.00,000.00,026.0,025.2,000.0,034.5,027.9,007.9,0000.0,0009.71,0003.15,0001.92
2024-04-15 10:31:00,SystemResetWarning,0819.3,5.00,000.00,026.0,025.2,000.0,034.5,027.9,007.8,0000.0,0010.09,0003.16,0001.97
2024-04-15 10:32:00,SystemResetWarning,0819.5,5.00,000.00,026.0,025.2,000.0,034.5,027.9,007.7,0000.0,0011.10,0003.15,0001.96
2024-04-15 10:33:00,SystemResetWarning,0819.3,4.99,000.00,026.0,025.2,000.0,034.5,027.9,007.7,0000.0,0011.13,0003.12,0001.95
2024-04-15 10:34:00,SystemResetWarning,0819.5,4.99,000.00,026.0,025.2,000.0,034.5,027.9,007.7,0000.0,0011.23,0003.16,0001.94
2024-04-15 10:35:00,SystemResetWarning,0819.4,5.01,000.00,026.0,025.2,000.0,034.6,027.9,007.7,0000.0,0011.33,0003.16,0001.92
2024-04-15 10:36:00,SystemResetWarning,0819.3,5.01,000.00,026.0,025.2,000.0,034.6,027.9,007.7,0000.0,0010.53,0003.14,0001.90
2024-04-15 10:37:00,SystemResetWarning,0819.3,5.00,000.00,026.0,025.2,000.0,034.6,027.9,007.8,0000.0,0009.90,0003.13,0001.91
2024-04-15 10:38:00,SystemResetWarning,0819.3,5.00,000.00,026.0,025.3,000.0,034.6,027.9,007.8,0000.0,0010.27,0003.15,0001.94
2024-04-15 10:39:00,SystemResetWarning,0819.4,5.01,000.00,026.0,025.3,000.0,034.6,027.9,007.7,0000.0,0010.57,0003.17,0001.95
2024-04-15 10:40:00,SystemResetWarning,0819.4,5.00,000.00,026.0,025.3,000.0,034.6,027.9,008.0,0000.0,0010.29,0003.18,0001.97
2024-04-15 10:41:00,SystemResetWarning,0819.3,4.99,000.00,026.0,025.3,000.0,034.6,027.9,008.3,0000.0,0009.78,0003.14,0001.95
2024-04-15 10:42:00,SystemResetWarning,0819.3,4.99,000.00,026.1,025.3,000.0,034.6,027.9,007.9,0000.0,0009.27,0003.12,0001.92
2024-04-15 10:43:00,SystemResetWarning,0819.3,4.99,000.00,026.1,025.3,000.0,034.6,027.9,007.7,0000.0,0008.53,0003.11,0001.90
2024-04-15 10:44:00,SystemResetWarning,0819.2,5.00,000.00,026.1,025.3,000.0,034.6,027.9,007.7,0000.0,0008.51,0003.13,0001.90
2024-04-15 10:45:00,SystemResetWarning,0819.2,5.00,000.00,026.1,025.3,000.0,034.6,027.9,007.7,0000.0,0009.09,0003.10,0001.89
2024-04-15 10:46:00,SystemResetWarning,0819.2,5.00,000.00,026.1,025.3,000.0,034.6,027.9,008.0,0000.0,0009.11,0003.11,0001.88
2024-04-15 10:47:00,SystemResetWarning,0819.2,5.00,000.00,026.1,025.3,000.0,034.6,027.9,008.3,0000.0,0009.75,0003.10,0001.87
2024-04-15 10:48:00,SystemResetWarning,0819.2,4.98,000.00,026.1,025.3,000.0,034.6,027.9,008.0,0000.0,0010.22,0003.12,0001.85
2024-04-15 10:49:00,SystemResetWarning,0819.2,5.00,000.00,026.1,025.3,000.0,034.6,027.9,007.8,0000.0,0010.34,0003.09,0001.82
2024-04-15 10:50:00,SystemResetWarning,0819.2,5.01,000.00,026.1,025.3,000.0,034.6,027.9,007.8,0000.0,0010.08,0003.06,0001.80
2024-04-15 10:51:00,SystemResetWarning,0819.2,5.01,000.00,026.1,025.3,000.0,034.6,027.9,007.6,0000.0,0010.04,0003.04,0001.79
2024-04-15 10:52:00,SystemResetWarning,0819.2,4.99,000.00,026.1,025.3,000.0,034.6,027.9,007.4,0000.0,0010.10,0003.02,0001.79
2024-04-15 10:53:00,SystemResetWarning,0819.2,4.99,000.00,026.1,025.3,000.0,034.6,027.9,007.6,0000.0,0010.03,0002.99,0001.76
2024-04-15 10:54:00,SystemResetWarning,0819.3,5.00,000.00,026.1,025.3,000.0,034.6,027.9,007.8,0000.0,0009.84,0002.97,0001.75
2024-04-15 10:55:00,SystemResetWarning,0819.3,5.01,000.00,026.1,025.3,000.0,034.6,027.9,007.7,0000.0,0009.97,0002.97,0001.73
2024-04-15 10:56:00,SystemResetWarning,0819.2,4.99,000.00,026.0,025.3,000.0,034.6,027.9,007.5,0000.0,0009.30,0002.96,0001.71
2024-04-15 10:57:00,SystemResetWarning,0819.3,4.99,000.00,026.0,025.3,000.0,034.6,027.9,007.7,0000.0,0009.05,0002.90,0001.70
2024-04-15 10:58:00,SystemResetWarning,0819.3,5.01,000.00,026.0,025.3,000.0,034.6,027.9,007.8,0000.0,0008.40,0002.90,0001.69
2024-04-15 10:59:00,SystemResetWarning,0819.3,5.01,000.00,026.0,025.3,000.0,034.5,027.8,007.7,0000.0,0008.52,0002.94,0001.68
